Location: Pella
(41.4080°N, 92.9160°W)
Time: 15:00:40
(UTC-05:00)

Daily predictions for brighter satellites

Satellite Brightness Start Highest point End
(mag) Time Altitude Azimuth Time Altitude Azimuth Time Altitude Azimuth
Aureole 1 Rocket 2.5 21:17:20 10° SSW 21:20:31 89° SE 21:24:26 10° NNE
Meteor 1-24 Rocket 4.2 21:16:04 10° SSE 21:21:48 48° E 21:27:33 10° NNE
H-2A R/B 2.9 21:19:42 10° SE 21:24:30 36° ENE 21:29:25 10° N
Cosmos 1269 Rocket 4.1 21:21:26 10° S 21:26:37 60° ESE 21:31:52 10° NNE
Cosmos 2263 Rocket 4.1 21:24:09 10° WSW 21:29:20 35° WNW 21:34:31 10° N
Centaur D-1AR AC-36 4.4 21:17:06 10° WSW 21:33:05 22° SW 21:38:14 10° SSE
Cosmos 1908 4.4 21:31:28 10° NNE 21:34:51 28° ENE 21:38:07 11° SE
ATLAS 2AS CENTAUR R/B 3.1 21:29:01 10° SSW 21:36:43 72° ESE 21:44:49 10° NE
Thor Agena Rocket 4.4 21:31:58 10° N 21:36:56 54° WNW 21:41:51 10° SSW
Cosmos 1340 4.3 21:37:07 10° NNE 21:39:58 20° ENE 21:42:33 11° ESE
In-Cosmos 22 4.2 21:38:02 10° S 21:43:35 84° E 21:49:18 10° N
Meteor 2-5 Rocket 4.1 21:37:51 10° SSW 21:43:47 76° W 21:49:42 10° N
Iridium 4 Rocket 3.7 21:38:25 10° S 21:44:03 87° W 21:49:16 10° N
Cosmos 1953 Rocket 3.5 21:42:36 10° S 21:46:57 89° E 21:51:23 10° N
MetOp-B 4.3 21:43:48 10° SSE 21:49:03 60° ENE 21:54:19 10° N
Cosmos 1437 2.6 21:46:20 10° N 21:49:31 83° ENE 21:52:33 11° S
ERS-1 Rocket 3.5 21:46:45 12° SE 21:51:10 44° ENE 21:55:58 10° N
Cosmos 1758 Rocket 4.0 21:47:43 10° SSW 21:52:07 65° W 21:56:31 10° N
Cosmos 1674 2.9 21:50:46 10° S 21:54:28 52° E 21:58:13 10° NNE
Cosmos 724 4.4 21:52:33 10° NNW 21:58:37 88° ENE 22:03:55 14° SSE
Cosmos 2251 Rocket 4.2 21:57:04 10° SSE 22:01:53 35° E 22:06:41 10° NE
USA 215 3.7 21:58:50 12° SSE 22:04:47 55° SW 22:11:13 10° NW
Cosmos 1726 2.6 22:01:13 10° N 22:04:50 44° ENE 22:07:13 19° SE
Terra 3.5 22:02:30 12° ESE 22:05:27 20° ENE 22:08:53 10° NNE
ERS-2 4.2 22:02:44 10° SSW 22:05:47 25° W 22:08:52 10° NW
Resurs 01 Rocket 3.7 22:02:17 10° SSW 22:05:53 24° W 22:09:32 10° NW
Cosmos 2221 4.2 22:02:57 10° NNE 22:06:05 19° ENE 22:08:10 14° ESE
Cosmos 921 Rocket 3.1 22:05:26 10° NNW 22:09:56 85° WSW 22:13:34 16° SSE
CENTAUR R/B 4.4 22:05:18 10° NNW 22:12:04 31° NE 22:19:18 10° E
OAO 3 Rocket 3.9 22:08:06 10° WSW 22:12:39 37° S 22:15:31 20° SE
NOSS 3-4 (A) 3.9 22:08:42 10° S 22:14:21 39° ESE 22:20:10 10° NE
NOSS 3-4 (C) 3.9 22:08:49 10° S 22:14:26 39° ESE 22:20:15 10° NE
Iridium 81 3.6 22:17:11 24° S 22:18:31 88° WNW 22:21:26 10° N
SL-8 R/B 4.2 22:15:21 10° WSW 22:20:09 65° NNW 22:24:58 10° ENE
Cosmos 1461 3.4 22:16:48 10° S 22:21:11 45° ESE 22:25:43 10° NE
CZ-2C R/B 4.4 22:19:33 16° ESE 22:23:09 30° ENE 22:28:04 10° N
ARGOS 3.7 22:17:55 10° S 22:23:14 56° W 22:28:35 10° NNW
Cosmos 2278 Rocket 2.5 22:18:52 10° S 22:24:10 47° ESE 22:29:37 10° NE
ATLAS 3B CENTAUR R/B 4.4 22:13:31 10° SW 22:29:35 32° S 22:35:02 19° SE
APEX 3.0 22:30:25 10° NNW 22:33:34 64° ENE 22:35:06 32° SE
Meteor 1-21 Rocket 4.3 22:30:00 15° S 22:34:49 67° E 22:40:35 10° NNE
IGS 5A 4.1 22:33:19 26° ESE 22:35:07 40° ENE 22:39:01 10° N
Cosmos 220 Rocket 3.9 22:31:21 10° SSW 22:35:35 90° W 22:39:49 10° NNE
Cosmos 1745 Rocket 4.0 22:33:17 10° N 22:39:37 83° E 22:43:58 21° S
Meteor 2-13 Rocket 4.4 22:33:46 10° N 22:39:52 76° E 22:43:50 23° SSE
Cosmos 1844 Rocket 4.0 22:35:34 10° SW 22:40:54 42° WNW 22:46:15 10° N
COSMOS 2406 3.5 22:37:02 10° NNW 22:42:44 65° WSW 22:46:26 22° S
NOSS 2-2 (D) 3.9 22:42:35 33° SE 22:42:59 34° ESE 22:46:45 10° NE
CARTOSAT-1 3.9 22:43:53 31° SE 22:45:41 53° ENE 22:49:55 10° N
SL-14 R/B 3.1 22:44:52 31° S 22:46:37 73° E 22:50:33 10° NNE
SPOT 5 3.0 22:45:39 25° S 22:48:45 83° WSW 22:54:04 10° NNW
Cosmos 807 4.1 22:48:54 42° SSW 22:49:48 82° W 22:53:04 10° N
ATLAS 3B R/B 2.7 22:49:52 10° NW 22:56:26 68° WSW 23:00:08 27° SSE
Cosmos 1076 Rocket 3.9 22:55:44 37° SE 22:56:46 45° E 23:00:49 10° NNE
Lacrosse 5 4.3 22:53:03 10° W 22:57:09 24° NNW 23:01:15 10° NNE
ATLAS 5 CENTAUR R/B 1.7 22:55:48 28° S 22:57:54 55° ESE 23:02:37 10° NE
SL-27 R/B 4.1 22:56:39 10° N 22:59:35 22° ENE 23:00:13 21° E
USA 238 DEB 4.3 22:53:54 10° NW 23:00:45 50° WSW 23:05:06 23° S
USA 238 4.3 22:54:00 10° NW 23:00:51 51° WSW 23:05:12 23° S
SPOT 1/Viking Rocket 3.8 23:00:46 26° S 23:03:40 62° WSW 23:08:47 10° NNW
H-2A R/B 3.7 22:59:23 10° SSW 23:03:55 29° W 23:08:36 10° NW
BREEZE-M DEB (TANK) 4.3 22:59:48 10° W 23:06:05 38° NNW 23:08:44 10° NE
Cosmos 1626 2.1 23:06:16 54° SE 23:06:50 63° E 23:10:31 10° NNE
Helios 1A 3.6 23:05:04 29° SSW 23:06:55 51° W 23:11:02 10° NNW
Helios 1B rocket 2.4 23:04:04 10° N 23:08:11 79° WNW 23:10:01 32° SSW
Cosmos 2297 4.2 23:06:55 34° SE 23:08:31 41° ESE 23:13:51 10° NE
NOSS 2-2 (C) 3.2 23:07:58 44° S 23:08:59 66° ESE 23:13:12 10° NE
Cosmos 1766 Rocket 4.5 23:08:57 31° ESE 23:09:26 32° E 23:13:24 10° NNE
Cosmos 1703 4.2 23:12:19 32° E 23:12:19 32° E 23:15:44 10° NNE
Cosmos 2082 Rocket 2.7 23:06:50 10° NNW 23:12:25 50° ENE 23:14:50 31° ESE
NOSS 3-2 (A) 4.2 23:04:55 10° NW 23:12:30 68° WSW 23:17:06 29° SSE
Cosmos 1709 Rocket 3.9 23:06:40 10° N 23:12:54 75° E 23:15:45 34° SSE
Cosmos 1833 Rocket 3.0 23:07:29 10° NNW 23:13:01 57° ENE 23:15:19 33° SE
Cosmos 1340 4.5 23:12:25 10° NW 23:15:35 25° W 23:17:23 18° SW
YAOGAN 11 4.2 23:14:27 44° SE 23:15:48 68° ENE 23:20:19 10° N
Cosmos 2058 4.4 23:17:53 22° E 23:17:53 22° E 23:20:53 10° NE
CZ-2C R/B 2.8 23:14:10 10° NNE 23:19:29 56° E 23:21:06 40° SSE
Spot 1 4.3 23:24:21 43° SSW 23:25:39 66° WSW 23:30:15 10° NNW
Meteor 2-19 Rocket 4.5 23:22:01 10° N 23:28:10 71° E 23:30:33 39° SSE
Aureole 3 Rocket 4.1 23:24:36 28° S 23:28:54 83° E 23:34:31 10° N
Cosmos 1455 2.6 23:30:25 10° N 23:34:03 47° ENE 23:34:03 47° ENE
Cosmos 1300 4.2 23:32:03 10° NNW 23:35:24 29° W 23:36:28 25° WSW
NOSS 3-2 (C) 4.2 23:30:51 10° NW 23:38:24 64° WSW 23:42:13 34° S
EO 1 Delta rocket 4.3 23:32:32 10° NNE 23:39:06 75° E 23:40:55 44° S
RESURS DK-1 2.2 23:41:55 70° SSW 23:42:22 88° ESE 23:46:32 10° NNE
Terra 2.5 23:41:23 34° SW 23:42:52 45° W 23:47:26 10° NNW
Cosmos 2221 3.7 23:39:51 10° NNW 23:43:46 34° W 23:45:02 28° SW
Okean 3 Rocket 3.9 23:44:14 41° SW 23:45:28 58° W 23:49:48 10° N
Cosmos 1992 Rocket 4.0 23:42:22 10° NNW 23:47:36 76° WSW 23:48:50 52° S
Cosmos 2315 Rocket 4.4 23:47:00 26° SSW 23:50:36 60° W 23:56:54 10° N
COBE Rocket 3.9 23:49:17 10° NNE 23:54:24 83° ESE 23:55:35 54° S
